Location: Unspecified
(0.0000°N, 0.0000°E)
Time: 00:14:15
(UTC+00:00)

S-56A Canister/Altair - Visible Passes

Search period start: 16 September 2019 00:00
Search period end: 26 September 2019 00:00
Orbit: 633 x 2499 km, 38.9° (Epoch: 14 September)

Date Brightness Start Highest point End Pass type
(mag) Time Alt. Az. Time Alt. Az. Time Alt. Az.
17 Sep 11.4 05:36:26 10° SSE 05:37:52 10° SE 05:39:20 10° SE visible
17 Sep 10.0 20:29:36 10° NW 20:30:47 15° NW 20:30:47 15° NW visible
18 Sep 9.1 19:56:44 10° NNW 20:00:13 29° NNW 20:00:13 29° NNW visible
19 Sep 8.4 19:23:49 10° NNW 19:29:43 36° NNE 19:29:43 36° NNE visible
20 Sep 8.7 18:50:51 10° NNW 18:57:07 31° NE 18:59:16 24° ENE visible
20 Sep 10.5 20:56:11 10° WNW 20:56:44 12° WNW 20:56:44 12° WNW visible
21 Sep 11.0 05:24:02 10° S 05:31:15 22° SE 05:40:17 10° E visible
21 Sep 9.2 18:17:51 10° NNW 18:24:16 27° NNE 18:28:52 11° E visible
21 Sep 9.4 20:22:48 10° WNW 20:26:21 28° W 20:26:21 28° W visible
22 Sep 11.0 04:52:21 10° S 04:58:06 17° SE 05:05:04 10° E visible
22 Sep 8.1 19:49:26 10° WNW 19:55:57 54° SW 19:56:00 54° SW visible
23 Sep 11.1 04:21:17 10° SSE 04:25:00 13° SE 04:29:12 10° ESE visible
23 Sep 8.0 19:16:04 10° NW 19:23:23 71° SW 19:25:42 35° SSE visible
24 Sep 8.0 18:42:41 10° NW 18:50:44 89° SW 18:55:25 15° SE visible
25 Sep 10.4 05:15:29 10° SSW 05:23:48 42° SE 05:35:35 10° ENE visible
25 Sep 8.2 18:09:17 10° NW 18:18:00 75° NE 18:23:45 10° SE visible
25 Sep 10.1 20:18:39 10° WSW 20:21:27 13° SW 20:22:39 12° SSW visible
